This demonstration page uses our WeatherBlox Daily Observations layout. Learn more.

Left ArrowRight Arrow

Hourly Observations for May 11, 2018

Temp ( °F °C ) Dew Point ( °F °C ) Humidity (%) Winds ( mph kmh ) Pressure ( in mb ) Visibility ( mi km ) Precip ( " mm )
12:51 am 00:51 Clear 79 26.1 18 -7.8 10 10 NNW 13 20 29.64 1004 10 16 0.00 0.00
1:51 am 01:51 Clear 78 25.6 20 -6.7 11 11 NNW 5 7 29.64 1004 10 16 0.00 0.00
2:51 am 02:51 Clear 75 23.9 23 -5 14 14 NNE 5 7 29.64 1004 10 16 0.00 0.00
3:51 am 03:51 Clear 75 23.9 22 -5.6 14 14 ESE 3 6 29.64 1004 10 16 0.00 0.00
4:51 am 04:51 Clear 72 22.2 21 -6.1 15 15 E 9 15 29.65 1004 10 16 0.00 0.00
5:51 am 05:51 Sunny 71 21.7 24 -4.4 17 17 E 8 13 29.65 1004 10 16 0.00 0.00
6:51 am 06:51 Sunny 77 25 26 -3.3 15 15 E 14 22 29.67 1005 10 16 0.00 0.00
7:51 am 07:51 Sunny 80 26.7 27 -2.8 14 14 E 14 22 29.68 1005 10 16 0.00 0.00
8:51 am 08:51 Sunny 84 28.9 27 -2.8 12 12 ESE 7 11 29.69 1005 10 16 0.00 0.00
9:51 am 09:51 Sunny 86 30 25 -3.9 11 11 S 7 11 29.68 1005 10 16 0.00 0.00
10:51 am 10:51 Sunny 89 31.7 22 -5.6 8 8 VRB 5 7 29.66 1004 10 16 0.00 0.00
11:51 am 11:51 Sunny 91 32.8 23 -5 8 8 VRB 7 11 29.63 1003 10 16 0.00 0.00
12:51 pm 12:51 Sunny 95 35 22 -5.6 7 7 SSW 8 13 29.60 1002 10 16 0.00 0.00
1:51 pm 13:51 Sunny 98 36.7 21 -6.1 6 6 W 14 22 29.56 1001 10 16 0.00 0.00
2:51 pm 14:51 Sunny 98 36.7 21 -6.1 6 6 W 23 37 29.54 1000 10 16 0.00 0.00
3:51 pm 15:51 Sunny 98 36.7 21 -6.1 6 6 W 20 31 29.52 1000 10 16 0.00 0.00
4:51 pm 16:51 Sunny 95 35 23 -5 7 7 WSW 21 33 29.53 1000 10 16 0.00 0.00
5:51 pm 17:51 Sunny 93 33.9 22 -5.6 7 7 SW 20 31 29.54 1000 10 16 0.00 0.00
6:51 pm 18:51 Sunny 90 32.2 26 -3.3 10 10 WSW 17 28 29.55 1001 10 16 0.00 0.00
7:51 pm 19:51 Clear 88 31.1 30 -1.1 12 12 W 18 30 29.57 1002 10 16 0.00 0.00
8:51 pm 20:51 Clear 85 29.4 31 -0.6 14 14 WSW 14 22 29.60 1002 10 16 0.00 0.00
9:51 pm 21:51 Clear 84 28.9 34 1.1 17 17 WSW 16 26 29.63 1004 10 16 0.00 0.00
10:51 pm 22:51 Clear 81 27.2 33 0.6 18 18 WSW 8 13 29.65 1004 10 16 0.00 0.00
11:51 pm 23:51 Clear 81 27.2 36 2.2 20 20 W 12 19 29.65 1004 10 16 0.00 0.00

Powered by AerisWeather